# Tabular Observed and Forecast Hydrograph Information
#
# Location: Sycan River - Beatty (SCNO3)
#
# File Generation Time: 05/08/2026 at 08:15 AM PDT
# Data Interval: 1 Hour
#
# Most Recent Date & Time of Maximum Observed: 05/03/2026 at 03:00 PM PDT
# Maximum Observed Stage: 2.71 Feet
# Maximum Observed Flow: 80 cfs
#
# Earliest Date & Time of Maximum Forecast: 05/08/2026 at 09:00 AM PDT
# Maximum Forecast Stage: 2.44 Feet
# Maximum Forecast Flow: 58 cfs
#
# OBSERVED
#
# Date & Time (Local) Stage (Feet) Flow (cfs) Trend Observed Status
# ---------------------------------------------------------------------------------
05/03/2026 08 AM PDT 2.71 80 Not Applicable
05/03/2026 09 AM PDT 2.71 80 0 Not Applicable
05/03/2026 10 AM PDT 2.71 80 0 Not Applicable
05/03/2026 11 AM PDT 2.71 80 0 Not Applicable
05/03/2026 12 PM PDT 2.71 80 0 Not Applicable
05/03/2026 01 PM PDT 2.71 80 0 Not Applicable
05/03/2026 02 PM PDT 2.71 80 0 Not Applicable
05/03/2026 03 PM PDT 2.71 80 0 Not Applicable
05/03/2026 04 PM PDT 2.70 80 - Not Applicable
05/03/2026 05 PM PDT 2.70 80 0 Not Applicable
05/03/2026 06 PM PDT 2.70 80 0 Not Applicable
05/03/2026 07 PM PDT 2.69 79 - Not Applicable
05/03/2026 08 PM PDT 2.69 79 0 Not Applicable
05/03/2026 09 PM PDT 2.69 79 0 Not Applicable
05/03/2026 10 PM PDT 2.68 78 - Not Applicable
05/03/2026 11 PM PDT 2.68 78 0 Not Applicable
05/04/2026 12 AM PDT 2.68 78 0 Not Applicable
05/04/2026 01 AM PDT 2.68 78 0 Not Applicable
05/04/2026 02 AM PDT 2.67 77 - Not Applicable
05/04/2026 03 AM PDT 2.67 77 0 Not Applicable
05/04/2026 04 AM PDT 2.67 77 0 Not Applicable
05/04/2026 05 AM PDT 2.67 77 0 Not Applicable
05/04/2026 06 AM PDT 2.67 77 0 Not Applicable
05/04/2026 07 AM PDT 2.67 77 0 Not Applicable
05/04/2026 08 AM PDT 2.67 77 0 Not Applicable
05/04/2026 09 AM PDT 2.67 77 0 Not Applicable
05/04/2026 10 AM PDT 2.68 78 + Not Applicable
05/04/2026 11 AM PDT 2.68 78 0 Not Applicable
05/04/2026 12 PM PDT 2.69 79 + Not Applicable
05/04/2026 01 PM PDT 2.68 78 - Not Applicable
05/04/2026 02 PM PDT 2.67 77 - Not Applicable
05/04/2026 03 PM PDT 2.67 77 0 Not Applicable
05/04/2026 04 PM PDT 2.67 77 0 Not Applicable
05/04/2026 05 PM PDT 2.66 76 - Not Applicable
05/04/2026 06 PM PDT 2.66 76 0 Not Applicable
05/04/2026 07 PM PDT 2.66 76 0 Not Applicable
05/04/2026 08 PM PDT 2.64 75 - Not Applicable
05/04/2026 09 PM PDT 2.64 75 0 Not Applicable
05/04/2026 10 PM PDT 2.63 74 - Not Applicable
05/04/2026 11 PM PDT 2.63 74 0 Not Applicable
05/05/2026 12 AM PDT 2.63 74 0 Not Applicable
05/05/2026 01 AM PDT 2.62 73 - Not Applicable
05/05/2026 02 AM PDT 2.61 72 - Not Applicable
05/05/2026 03 AM PDT 2.61 72 0 Not Applicable
05/05/2026 04 AM PDT 2.61 72 0 Not Applicable
05/05/2026 05 AM PDT 2.61 72 0 Not Applicable
05/05/2026 06 AM PDT 2.61 72 0 Not Applicable
05/05/2026 07 AM PDT 2.60 71 - Not Applicable
05/05/2026 08 AM PDT 2.60 71 0 Not Applicable
05/05/2026 09 AM PDT 2.61 72 + Not Applicable
05/05/2026 10 AM PDT 2.61 72 0 Not Applicable
05/05/2026 11 AM PDT 2.61 72 0 Not Applicable
05/05/2026 12 PM PDT 2.61 72 0 Not Applicable
05/05/2026 01 PM PDT 2.61 72 0 Not Applicable
05/05/2026 02 PM PDT 2.61 72 0 Not Applicable
05/05/2026 03 PM PDT 2.61 72 0 Not Applicable
05/05/2026 04 PM PDT 2.61 72 0 Not Applicable
05/05/2026 05 PM PDT 2.61 72 0 Not Applicable
05/05/2026 06 PM PDT 2.61 72 0 Not Applicable
05/05/2026 07 PM PDT 2.60 71 - Not Applicable
05/05/2026 08 PM PDT 2.60 71 0 Not Applicable
05/05/2026 09 PM PDT 2.59 70 - Not Applicable
05/05/2026 10 PM PDT 2.59 70 0 Not Applicable
05/05/2026 11 PM PDT 2.59 70 0 Not Applicable
05/06/2026 12 AM PDT 2.58 69 - Not Applicable
05/06/2026 01 AM PDT 2.58 69 0 Not Applicable
05/06/2026 02 AM PDT 2.58 69 0 Not Applicable
05/06/2026 03 AM PDT 2.58 69 0 Not Applicable
05/06/2026 04 AM PDT 2.57 68 - Not Applicable
05/06/2026 05 AM PDT 2.57 68 0 Not Applicable
05/06/2026 06 AM PDT 2.57 68 0 Not Applicable
05/06/2026 07 AM PDT 2.57 68 0 Not Applicable
05/06/2026 08 AM PDT 2.57 68 0 Not Applicable
05/06/2026 09 AM PDT 2.57 68 0 Not Applicable
05/06/2026 10 AM PDT 2.57 68 0 Not Applicable
05/06/2026 11 AM PDT 2.57 68 0 Not Applicable
05/06/2026 12 PM PDT 2.57 68 0 Not Applicable
05/06/2026 01 PM PDT 2.57 68 0 Not Applicable
05/06/2026 02 PM PDT 2.56 68 - Not Applicable
05/06/2026 03 PM PDT 2.57 68 + Not Applicable
05/06/2026 04 PM PDT 2.56 68 - Not Applicable
05/06/2026 05 PM PDT 2.56 68 0 Not Applicable
05/06/2026 06 PM PDT 2.56 68 0 Not Applicable
05/06/2026 07 PM PDT 2.55 67 - Not Applicable
05/06/2026 08 PM PDT 2.55 67 0 Not Applicable
05/06/2026 09 PM PDT 2.54 66 - Not Applicable
05/06/2026 10 PM PDT 2.53 65 - Not Applicable
05/06/2026 11 PM PDT 2.54 66 + Not Applicable
05/07/2026 12 AM PDT 2.53 65 - Not Applicable
05/07/2026 01 AM PDT 2.52 64 - Not Applicable
05/07/2026 02 AM PDT 2.52 64 0 Not Applicable
05/07/2026 03 AM PDT 2.51 63 - Not Applicable
05/07/2026 04 AM PDT 2.51 63 0 Not Applicable
05/07/2026 05 AM PDT 2.51 63 0 Not Applicable
05/07/2026 06 AM PDT 2.51 63 0 Not Applicable
05/07/2026 07 AM PDT 2.50 63 - Not Applicable
05/07/2026 08 AM PDT 2.50 63 0 Not Applicable
05/07/2026 09 AM PDT 2.50 63 0 Not Applicable
05/07/2026 10 AM PDT 2.50 63 0 Not Applicable
05/07/2026 11 AM PDT 2.50 63 0 Not Applicable
05/07/2026 12 PM PDT 2.51 63 + Not Applicable
05/07/2026 01 PM PDT 2.51 63 0 Not Applicable
05/07/2026 02 PM PDT 2.51 63 0 Not Applicable
05/07/2026 03 PM PDT 2.51 63 0 Not Applicable
05/07/2026 04 PM PDT 2.51 63 0 Not Applicable
05/07/2026 05 PM PDT 2.50 63 - Not Applicable
05/07/2026 06 PM PDT 2.50 63 0 Not Applicable
05/07/2026 07 PM PDT 2.49 62 - Not Applicable
05/07/2026 08 PM PDT 2.48 61 - Not Applicable
05/07/2026 09 PM PDT 2.48 61 0 Not Applicable
05/07/2026 10 PM PDT 2.47 60 - Not Applicable
05/07/2026 11 PM PDT 2.47 60 0 Not Applicable
05/08/2026 12 AM PDT 2.47 60 0 Not Applicable
05/08/2026 01 AM PDT 2.46 59 - Not Applicable
05/08/2026 02 AM PDT 2.46 59 0 Not Applicable
05/08/2026 03 AM PDT 2.45 58 - Not Applicable
05/08/2026 04 AM PDT 2.45 58 0 Not Applicable
05/08/2026 05 AM PDT 2.45 58 0 Not Applicable
05/08/2026 06 AM PDT 2.44 58 - Not Applicable
05/08/2026 07 AM PDT 2.44 58 0 Not Applicable
05/08/2026 08 AM PDT 2.44 58 0 Not Applicable
#
# FORECAST
#
# Date & Time (Local) Stage (Feet) Flow (cfs) Trend Forecast Status
# ---------------------------------------------------------------------------------
05/08/2026 09 AM PDT 2.44 58 Not Applicable
05/08/2026 10 AM PDT 2.44 58 0 Not Applicable
05/08/2026 11 AM PDT 2.44 58 0 Not Applicable
05/08/2026 12 PM PDT 2.44 58 0 Not Applicable
05/08/2026 01 PM PDT 2.44 58 0 Not Applicable
05/08/2026 02 PM PDT 2.43 57 - Not Applicable
05/08/2026 03 PM PDT 2.43 57 0 Not Applicable
05/08/2026 04 PM PDT 2.43 57 0 Not Applicable
05/08/2026 05 PM PDT 2.43 57 0 Not Applicable
05/08/2026 06 PM PDT 2.43 57 0 Not Applicable
05/08/2026 07 PM PDT 2.44 58 + Not Applicable
05/08/2026 08 PM PDT 2.44 58 0 Not Applicable
05/08/2026 09 PM PDT 2.44 58 0 Not Applicable
05/08/2026 10 PM PDT 2.44 58 0 Not Applicable
05/08/2026 11 PM PDT 2.44 58 0 Not Applicable
05/09/2026 12 AM PDT 2.44 58 0 Not Applicable
05/09/2026 01 AM PDT 2.44 58 0 Not Applicable
05/09/2026 02 AM PDT 2.44 58 0 Not Applicable
05/09/2026 03 AM PDT 2.44 58 0 Not Applicable
05/09/2026 04 AM PDT 2.44 58 0 Not Applicable
05/09/2026 05 AM PDT 2.44 58 0 Not Applicable
05/09/2026 06 AM PDT 2.44 58 0 Not Applicable
05/09/2026 07 AM PDT 2.44 58 0 Not Applicable
05/09/2026 08 AM PDT 2.44 58 0 Not Applicable
05/09/2026 09 AM PDT 2.44 58 0 Not Applicable
05/09/2026 10 AM PDT 2.44 58 0 Not Applicable
05/09/2026 11 AM PDT 2.44 58 0 Not Applicable
05/09/2026 12 PM PDT 2.43 57 - Not Applicable
05/09/2026 01 PM PDT 2.43 57 0 Not Applicable
05/09/2026 02 PM PDT 2.43 57 0 Not Applicable
05/09/2026 03 PM PDT 2.43 57 0 Not Applicable
05/09/2026 04 PM PDT 2.43 57 0 Not Applicable
05/09/2026 05 PM PDT 2.43 57 0 Not Applicable
05/09/2026 06 PM PDT 2.43 57 0 Not Applicable
05/09/2026 07 PM PDT 2.43 57 0 Not Applicable
05/09/2026 08 PM PDT 2.44 58 + Not Applicable
05/09/2026 09 PM PDT 2.44 58 0 Not Applicable
05/09/2026 10 PM PDT 2.44 58 0 Not Applicable
05/09/2026 11 PM PDT 2.44 58 0 Not Applicable
05/10/2026 12 AM PDT 2.44 58 0 Not Applicable
05/10/2026 01 AM PDT 2.44 58 0 Not Applicable
05/10/2026 02 AM PDT 2.44 58 0 Not Applicable
05/10/2026 03 AM PDT 2.44 58 0 Not Applicable
05/10/2026 04 AM PDT 2.44 58 0 Not Applicable
05/10/2026 05 AM PDT 2.44 58 0 Not Applicable
05/10/2026 06 AM PDT 2.44 58 0 Not Applicable
05/10/2026 07 AM PDT 2.44 58 0 Not Applicable
05/10/2026 08 AM PDT 2.44 58 0 Not Applicable
05/10/2026 09 AM PDT 2.44 58 0 Not Applicable
05/10/2026 10 AM PDT 2.44 58 0 Not Applicable
05/10/2026 11 AM PDT 2.43 57 - Not Applicable
05/10/2026 12 PM PDT 2.43 57 0 Not Applicable
05/10/2026 01 PM PDT 2.43 57 0 Not Applicable
05/10/2026 02 PM PDT 2.43 57 0 Not Applicable
05/10/2026 03 PM PDT 2.43 57 0 Not Applicable
05/10/2026 04 PM PDT 2.43 57 0 Not Applicable
05/10/2026 05 PM PDT 2.43 57 0 Not Applicable
05/10/2026 06 PM PDT 2.43 57 0 Not Applicable
05/10/2026 07 PM PDT 2.43 57 0 Not Applicable
05/10/2026 08 PM PDT 2.44 58 + Not Applicable
05/10/2026 09 PM PDT 2.44 58 0 Not Applicable
05/10/2026 10 PM PDT 2.44 58 0 Not Applicable
05/10/2026 11 PM PDT 2.44 58 0 Not Applicable
05/11/2026 12 AM PDT 2.44 58 0 Not Applicable
05/11/2026 01 AM PDT 2.44 58 0 Not Applicable
05/11/2026 02 AM PDT 2.44 58 0 Not Applicable
05/11/2026 03 AM PDT 2.44 58 0 Not Applicable
05/11/2026 04 AM PDT 2.44 58 0 Not Applicable
05/11/2026 05 AM PDT 2.44 58 0 Not Applicable
05/11/2026 06 AM PDT 2.44 58 0 Not Applicable
05/11/2026 07 AM PDT 2.44 58 0 Not Applicable
05/11/2026 08 AM PDT 2.44 58 0 Not Applicable
05/11/2026 09 AM PDT 2.44 58 0 Not Applicable
05/11/2026 10 AM PDT 2.44 58 0 Not Applicable
05/11/2026 11 AM PDT 2.43 57 - Not Applicable
05/11/2026 12 PM PDT 2.43 57 0 Not Applicable
05/11/2026 01 PM PDT 2.43 57 0 Not Applicable
05/11/2026 02 PM PDT 2.43 57 0 Not Applicable
05/11/2026 03 PM PDT 2.43 57 0 Not Applicable
05/11/2026 04 PM PDT 2.43 57 0 Not Applicable
05/11/2026 05 PM PDT 2.43 57 0 Not Applicable
05/11/2026 06 PM PDT 2.43 57 0 Not Applicable
05/11/2026 07 PM PDT 2.44 58 + Not Applicable
05/11/2026 08 PM PDT 2.44 58 0 Not Applicable
05/11/2026 09 PM PDT 2.44 58 0 Not Applicable
05/11/2026 10 PM PDT 2.44 58 0 Not Applicable
05/11/2026 11 PM PDT 2.44 58 0 Not Applicable
05/12/2026 12 AM PDT 2.44 58 0 Not Applicable
05/12/2026 01 AM PDT 2.44 58 0 Not Applicable
05/12/2026 02 AM PDT 2.44 58 0 Not Applicable
05/12/2026 03 AM PDT 2.44 58 0 Not Applicable
05/12/2026 04 AM PDT 2.44 58 0 Not Applicable
05/12/2026 05 AM PDT 2.44 58 0 Not Applicable
05/12/2026 06 AM PDT 2.44 58 0 Not Applicable
05/12/2026 07 AM PDT 2.44 58 0 Not Applicable
05/12/2026 08 AM PDT 2.44 58 0 Not Applicable
05/12/2026 09 AM PDT 2.44 58 0 Not Applicable
05/12/2026 10 AM PDT 2.44 58 0 Not Applicable
05/12/2026 11 AM PDT 2.44 58 0 Not Applicable
05/12/2026 12 PM PDT 2.44 58 0 Not Applicable
05/12/2026 01 PM PDT 2.44 58 0 Not Applicable
05/12/2026 02 PM PDT 2.43 57 - Not Applicable
05/12/2026 03 PM PDT 2.43 57 0 Not Applicable
05/12/2026 04 PM PDT 2.43 57 0 Not Applicable
05/12/2026 05 PM PDT 2.43 57 0 Not Applicable
05/12/2026 06 PM PDT 2.43 57 0 Not Applicable
05/12/2026 07 PM PDT 2.44 58 + Not Applicable
05/12/2026 08 PM PDT 2.44 58 0 Not Applicable
05/12/2026 09 PM PDT 2.44 58 0 Not Applicable
05/12/2026 10 PM PDT 2.44 58 0 Not Applicable
05/12/2026 11 PM PDT 2.44 58 0 Not Applicable
05/13/2026 12 AM PDT 2.44 58 0 Not Applicable
05/13/2026 01 AM PDT 2.44 58 0 Not Applicable
05/13/2026 02 AM PDT 2.44 58 0 Not Applicable
05/13/2026 03 AM PDT 2.44 58 0 Not Applicable
05/13/2026 04 AM PDT 2.44 58 0 Not Applicable
05/13/2026 05 AM PDT 2.44 58 0 Not Applicable
#
# NOTE 1: Stages are rounded to the nearest hundredth (.01) of a foot.
# NOTE 2: Flows are rounded to the nearest (1) cfs.
# NOTE 3: Trends are determined using hourly change in unrounded stage and flow.
# NOTE 4: Maximum Values are determined using unrounded stage and flow.
|